| time (UTC) | temp F | wind direction | speed MPH | gust MPH | rain 1hr in | rain 24hr in | rain mn in | humidity % | barometer mb |
| 20260905050814 | 81 | 189 | 0.0 | 0.0 | 0.00 | 0.09 | 0.08 | 79 | 1012.7 |
| 20260905050330 | 81 | 189 | 0.0 | 0.0 | 0.00 | 0.09 | 0.08 | 79 | 1012.7 |
| 20260905045822 | 81 | 189 | 0.0 | 0.0 | 0.00 | 0.09 | 0.08 | 79 | 1012.7 |
| 20260905045317 | 81 | 189 | 0.0 | 0.0 | 0.00 | 0.09 | 0.08 | 79 | 1012.6 |
| 20260905044814 | 81 | 189 | 0.0 | 0.0 | 0.00 | 0.09 | 0.08 | 78 | 1012.6 |
| 20260905044330 | 81 | 189 | 0.0 | 0.0 | 0.00 | 0.09 | 0.08 | 78 | 1012.7 |
| 20260905043806 | 81 | 189 | 0.0 | 0.0 | 0.00 | 0.09 | 0.08 | 78 | 1012.6 |
| 20260905043303 | 81 | 189 | 0.0 | 2.0 | 0.00 | 0.09 | 0.08 | 78 | 1012.7 |
| 20260905042800 | 81 | 189 | 0.0 | 2.0 | 0.00 | 0.09 | 0.08 | 78 | 1012.7 |
| 20260905042317 | 81 | 189 | 0.0 | 1.0 | 0.00 | 0.09 | 0.08 | 78 | 1012.7 |
| 20260905041814 | 81 | 189 | 0.0 | 0.0 | 0.00 | 0.09 | 0.08 | 77 | 1012.8 |
| 20260905041328 | 81 | 189 | 0.0 | 0.0 | 0.00 | 0.09 | 0.08 | 77 | 1012.8 |
| 20260905040824 | 81 | 189 | 0.0 | 0.0 | 0.00 | 0.09 | 0.08 | 77 | 1012.9 |
| 20260905040318 | 81 | 189 | 0.0 | 1.0 | 0.00 | 0.09 | 0.08 | 77 | 1013.0 |
| 20260905035813 | 81 | 189 | 0.0 | 2.0 | 0.00 | 0.09 | 0.08 | 77 | 1013.1 |
| 20260905035309 | 81 | 189 | 0.0 | 3.0 | 0.00 | 0.09 | 0.08 | 77 | 1013.1 |
| 20260905034806 | 81 | 160 | 0.0 | 3.0 | 0.00 | 0.09 | 0.08 | 77 | 1013.2 |
| 20260905034303 | 81 | 63 | 0.0 | 0.0 | 0.00 | 0.09 | 0.08 | 77 | 1013.1 |
| 20260905033837 | 81 | 63 | 0.0 | 0.0 | 0.01 | 0.09 | 0.08 | 76 | 1013.2 |
| 20260905033333 | 81 | 63 | 0.0 | 0.0 | 0.01 | 0.09 | 0.08 | 76 | 1013.2 |
| 20260905032808 | 82 | 63 | 0.0 | 0.0 | 0.01 | 0.09 | 0.08 | 76 | 1013.2 |
| 20260905032325 | 82 | 63 | 0.0 | 0.0 | 0.01 | 0.09 | 0.08 | 76 | 1013.2 |
| 20260905031842 | 82 | 63 | 0.0 | 0.0 | 0.01 | 0.09 | 0.08 | 75 | 1013.3 |
| 20260905031338 | 82 | 63 | 0.0 | 0.0 | 0.01 | 0.09 | 0.08 | 75 | 1013.3 |
| 20260905030813 | 82 | 63 | 0.0 | 0.0 | 0.01 | 0.09 | 0.08 | 75 | 1013.4 |
| 20260905030310 | 82 | 63 | 0.0 | 0.0 | 0.01 | 0.09 | 0.08 | 74 | 1013.4 |
| 20260905025807 | 82 | 63 | 0.0 | 0.0 | 0.01 | 0.09 | 0.08 | 74 | 1013.5 |
| 20260905025322 | 82 | 63 | 0.0 | 0.0 | 0.01 | 0.09 | 0.08 | 74 | 1013.5 |
| 20260905024838 | 82 | 63 | 0.0 | 0.0 | 0.01 | 0.09 | 0.08 | 74 | 1013.5 |
| 20260905024306 | 82 | 63 | 0.0 | 0.0 | 0.01 | 0.09 | 0.08 | 74 | 1013.6 |
| 20260905023803 | 82 | 63 | 0.0 | 0.0 | 0.00 | 0.08 | 0.07 | 74 | 1013.5 |
| 20260905023258 | 82 | 63 | 0.0 | 0.0 | 0.00 | 0.08 | 0.07 | 74 | 1013.5 |
| 20260905022816 | 83 | 63 | 0.0 | 0.0 | 0.00 | 0.08 | 0.07 | 74 | 1013.5 |
| 20260905022313 | 83 | 63 | 0.0 | 0.0 | 0.00 | 0.08 | 0.07 | 74 | 1013.4 |
| 20260905021830 | 83 | 63 | 0.0 | 2.0 | 0.00 | 0.08 | 0.07 | 74 | 1013.4 |
| 20260905021324 | 83 | 63 | 0.0 | 2.0 | 0.00 | 0.08 | 0.07 | 74 | 1013.3 |
| 20260905020821 | 83 | 63 | 0.0 | 2.0 | 0.00 | 0.08 | 0.07 | 74 | 1013.2 |
| 20260905020317 | 83 | 63 | 1.0 | 2.0 | 0.00 | 0.08 | 0.07 | 74 | 1013.2 |
| 20260905015814 | 83 | 57 | 0.0 | 2.0 | 0.00 | 0.08 | 0.07 | 75 | 1013.3 |
| 20260905015311 | 83 | 38 | 0.0 | 0.0 | 0.00 | 0.08 | 0.07 | 75 | 1013.2 |
| 20260905014808 | 83 | 38 | 0.0 | 1.0 | 0.00 | 0.08 | 0.07 | 75 | 1013.1 |
| 20260905014305 | 83 | 38 | 0.0 | 1.0 | 0.00 | 0.08 | 0.07 | 75 | 1013.1 |
| 20260905013821 | 83 | 38 | 0.0 | 1.0 | 0.00 | 0.08 | 0.07 | 75 | 1013.1 |
| 20260905013339 | 83 | 38 | 0.0 | 1.0 | 0.00 | 0.08 | 0.07 | 76 | 1013.0 |
| 20260905012813 | 83 | 38 | 0.0 | 1.0 | 0.00 | 0.08 | 0.07 | 76 | 1013.0 |
| 20260905012308 | 83 | 38 | 0.0 | 0.0 | 0.00 | 0.08 | 0.07 | 75 | 1013.0 |
| 20260905011804 | 84 | 38 | 0.0 | 0.0 | 0.00 | 0.08 | 0.07 | 75 | 1012.9 |
| 20260905011300 | 84 | 38 | 0.0 | 2.0 | 0.01 | 0.08 | 0.07 | 75 | 1013.1 |
| 20260905010816 | 84 | 38 | 0.0 | 2.0 | 0.01 | 0.08 | 0.07 | 75 | 1013.1 |
| 20260905010312 | 84 | 38 | 0.0 | 0.0 | 0.01 | 0.08 | 0.07 | 74 | 1013.1 |
| 20260905005810 | 84 | 38 | 0.0 | 0.0 | 0.01 | 0.08 | 0.07 | 74 | 1013.0 |
| 20260905005307 | 84 | 38 | 0.0 | 0.0 | 0.01 | 0.08 | 0.07 | 73 | 1013.0 |
| 20260905004802 | 84 | 38 | 0.0 | 1.0 | 0.01 | 0.08 | 0.07 | 73 | 1013.0 |
| 20260905004319 | 84 | 38 | 0.0 | 2.0 | 0.01 | 0.08 | 0.07 | 73 | 1013.0 |
| 20260905003814 | 84 | 38 | 0.0 | 2.0 | 0.01 | 0.08 | 0.07 | 72 | 1012.9 |
| 20260905003311 | 85 | 38 | 0.0 | 1.0 | 0.01 | 0.08 | 0.07 | 72 | 1012.8 |
| 20260905002805 | 85 | 38 | 0.0 | 1.0 | 0.01 | 0.08 | 0.07 | 72 | 1012.8 |
| 20260905002323 | 85 | 38 | 0.0 | 1.0 | 0.01 | 0.08 | 0.07 | 72 | 1012.9 |
| 20260905001800 | 85 | 38 | 0.0 | 1.0 | 0.01 | 0.08 | 0.07 | 72 | 1013.0 |
| 20260905001317 | 86 | 38 | 0.0 | 2.0 | 0.00 | 0.07 | 0.06 | 71 | 1013.0 |
| 20260905000812 | 86 | 38 | 0.0 | 2.0 | 0.00 | 0.07 | 0.06 | 71 | 1013.0 |
| 20260905000310 | 86 | 38 | 0.0 | 1.0 | 0.00 | 0.07 | 0.06 | 71 | 1013.0 |
| 20260904235908 | 86 | 38 | 0.0 | 2.0 | 0.00 | 0.07 | 0.06 | 70 | 1013.0 |
| 20260904235305 | 87 | 38 | 0.0 | 2.0 | 0.00 | 0.07 | 0.06 | 70 | 1013.0 |
| 20260904234305 | 87 | 85 | 0.0 | 4.0 | 0.00 | 0.07 | 0.06 | 69 | 1012.8 |
| 20260904233803 | 87 | 9 | 0.0 | 4.0 | 0.00 | 0.07 | 0.06 | 69 | 1012.7 |
| 20260904233300 | 88 | 355 | 0.0 | 1.0 | 0.00 | 0.07 | 0.06 | 69 | 1012.7 |
| 20260904232818 | 88 | 355 | 0.0 | 1.0 | 0.00 | 0.07 | 0.06 | 70 | 1012.6 |
| 20260904232314 | 87 | 14 | 0.0 | 1.0 | 0.00 | 0.07 | 0.06 | 70 | 1012.7 |
| 20260904231812 | 87 | 14 | 0.0 | 3.0 | 0.00 | 0.07 | 0.06 | 71 | 1012.7 |
| 20260904231328 | 87 | 14 | 1.0 | 3.0 | 0.01 | 0.07 | 0.06 | 70 | 1012.7 |
| 20260904230804 | 87 | 332 | 1.0 | 3.0 | 0.01 | 0.07 | 0.06 | 70 | 1012.8 |
| 20260904230300 | 87 | 87 | 0.0 | 3.0 | 0.01 | 0.07 | 0.06 | 70 | 1012.8 |
| 20260904225818 | 88 | 5 | 0.0 | 3.0 | 0.01 | 0.07 | 0.06 | 70 | 1012.8 |
| 20260904225313 | 88 | 350 | 1.0 | 3.0 | 0.01 | 0.07 | 0.06 | 68 | 1012.8 |
| 20260904224807 | 89 | 309 | 0.0 | 6.0 | 0.01 | 0.07 | 0.06 | 67 | 1012.7 |
| 20260904224304 | 90 | 309 | 1.0 | 6.0 | 0.01 | 0.07 | 0.06 | 67 | 1012.6 |
| 20260904223822 | 90 | 12 | 1.0 | 3.0 | 0.01 | 0.07 | 0.06 | 66 | 1012.6 |
| 20260904223339 | 91 | 5 | 0.0 | 3.0 | 0.01 | 0.07 | 0.06 | 67 | 1012.7 |
| 20260904222815 | 91 | 36 | 0.0 | 2.0 | 0.01 | 0.07 | 0.06 | 66 | 1012.6 |
| 20260904222312 | 91 | 17 | 0.0 | 2.0 | 0.01 | 0.07 | 0.06 | 66 | 1012.6 |
| 20260904221810 | 91 | 298 | 0.0 | 2.0 | 0.01 | 0.08 | 0.06 | 66 | 1012.6 |
| 20260904221307 | 91 | 47 | 0.0 | 2.0 | 0.00 | 0.07 | 0.05 | 66 | 1012.5 |
| 20260904220824 | 91 | 296 | 0.0 | 2.0 | 0.00 | 0.07 | 0.05 | 65 | 1012.5 |
| 20260904220319 | 91 | 10 | 0.0 | 2.0 | 0.00 | 0.07 | 0.05 | 66 | 1012.6 |
| 20260904215815 | 91 | 340 | 0.0 | 2.0 | 0.00 | 0.07 | 0.05 | 67 | 1012.5 |
| 20260904215310 | 91 | 303 | 0.0 | 3.0 | 0.00 | 0.07 | 0.05 | 67 | 1012.7 |
| 20260904214807 | 91 | 310 | 0.0 | 4.0 | 0.00 | 0.07 | 0.05 | 66 | 1012.7 |
| 20260904214304 | 91 | 355 | 0.0 | 4.0 | 0.00 | 0.07 | 0.05 | 65 | 1012.6 |
| 20260904213823 | 90 | 17 | 0.0 | 2.0 | 0.00 | 0.07 | 0.05 | 66 | 1012.5 |
| 20260904212807 | 90 | 21 | 0.0 | 3.0 | 0.00 | 0.07 | 0.05 | 66 | 1012.7 |
| 20260904212325 | 90 | 26 | 0.0 | 3.0 | 0.01 | 0.07 | 0.05 | 67 | 1012.8 |
| 20260904211802 | 90 | 10 | 0.0 | 6.0 | 0.01 | 0.07 | 0.05 | 65 | 1012.8 |
| 20260904211315 | 90 | 289 | 1.0 | 7.0 | 0.01 | 0.07 | 0.05 | 66 | 1012.7 |
| 20260904210812 | 90 | 39 | 1.0 | 7.0 | 0.01 | 0.07 | 0.05 | 65 | 1012.8 |
| 20260904210307 | 90 | 57 | 0.0 | 2.0 | 0.01 | 0.07 | 0.05 | 66 | 1012.7 |
| 20260904205804 | 90 | 61 | 0.0 | 2.0 | 0.01 | 0.07 | 0.05 | 65 | 1012.7 |
| 20260904205310 | 90 | 295 | 0.0 | 2.0 | 0.01 | 0.07 | 0.05 | 66 | 1012.6 |
| 20260904204807 | 90 | 329 | 1.0 | 4.0 | 0.01 | 0.07 | 0.05 | 66 | 1012.7 |
| 20260904204303 | 90 | 14 | 0.0 | 4.0 | 0.01 | 0.07 | 0.05 | 66 | 1012.7 |
| 20260904203800 | 90 | 5 | 0.0 | 3.0 | 0.01 | 0.07 | 0.05 | 67 | 1012.7 |
| 20260904203316 | 90 | 39 | 0.0 | 3.0 | 0.01 | 0.07 | 0.05 | 67 | 1012.7 |
| 20260904202812 | 90 | 50 | 1.0 | 5.0 | 0.01 | 0.07 | 0.05 | 67 | 1012.8 |
| 20260904202329 | 90 | 345 | 1.0 | 5.0 | 0.00 | 0.06 | 0.04 | 68 | 1012.9 |
| 20260904201804 | 90 | 66 | 0.0 | 5.0 | 0.00 | 0.06 | 0.04 | 67 | 1012.9 |
| 20260904201321 | 90 | 28 | 1.0 | 5.0 | 0.00 | 0.06 | 0.04 | 68 | 1012.9 |
| 20260904200839 | 90 | 19 | 1.0 | 5.0 | 0.00 | 0.06 | 0.04 | 67 | 1013.0 |
| 20260904200313 | 90 | 24 | 1.0 | 4.0 | 0.00 | 0.06 | 0.04 | 68 | 1013.1 |
| 20260904195810 | 90 | 360 | 0.0 | 5.0 | 0.00 | 0.06 | 0.04 | 67 | 1013.1 |
| 20260904194833 | 89 | 30 | 0.0 | 4.0 | 0.00 | 0.06 | 0.04 | 69 | 1013.1 |
| 20260904194309 | 89 | 351 | 1.0 | 5.0 | 0.00 | 0.06 | 0.04 | 67 | 1013.2 |
| 20260904193806 | 88 | 42 | 1.0 | 5.0 | 0.00 | 0.06 | 0.04 | 69 | 1013.3 |
| 20260904193301 | 88 | 69 | 0.0 | 6.0 | 0.00 | 0.06 | 0.04 | 71 | 1013.4 |
| 20260904192816 | 88 | 340 | 1.0 | 7.0 | 0.01 | 0.06 | 0.04 | 72 | 1013.4 |
| 20260904192400 | 87 | 22 | 0.0 | 7.0 | 0.01 | 0.06 | 0.04 | 72 | 1013.6 |
| 20260904191813 | 87 | 40 | 1.0 | 4.0 | 0.01 | 0.06 | 0.04 | 72 | 1013.7 |
| 20260904191309 | 87 | 125 | 1.0 | 5.0 | 0.01 | 0.06 | 0.04 | 72 | 1013.8 |
| 20260904190826 | 87 | 348 | 2.0 | 5.0 | 0.01 | 0.06 | 0.04 | 72 | 1013.8 |
| 20260904190301 | 87 | 87 | 1.0 | 6.0 | 0.01 | 0.06 | 0.04 | 71 | 1014.0 |
| 20260904185818 | 87 | 327 | 1.0 | 7.0 | 0.01 | 0.06 | 0.04 | 72 | 1014.1 |
| 20260904185316 | 87 | 346 | 2.0 | 7.0 | 0.01 | 0.06 | 0.04 | 73 | 1014.1 |
| 20260904184811 | 86 | 39 | 0.0 | 4.0 | 0.01 | 0.06 | 0.04 | 73 | 1014.4 |
| 20260904184307 | 86 | 5 | 0.0 | 4.0 | 0.01 | 0.06 | 0.04 | 73 | 1014.4 |
| 20260904183804 | 87 | 32 | 0.0 | 3.0 | 0.01 | 0.06 | 0.04 | 71 | 1014.5 |
| 20260904182806 | 87 | 11 | 1.0 | 4.0 | 0.00 | 0.05 | 0.03 | 72 | 1014.6 |
| 20260904182344 | 87 | 142 | 0.0 | 4.0 | 0.00 | 0.05 | 0.03 | 73 | 1014.6 |
| 20260904181833 | 87 | 43 | 0.0 | 5.0 | 0.00 | 0.05 | 0.03 | 74 | 1014.7 |
| 20260904181329 | 87 | 36 | 0.0 | 5.0 | 0.00 | 0.05 | 0.03 | 73 | 1014.7 |
| 20260904180804 | 87 | 78 | 1.0 | 6.0 | 0.00 | 0.05 | 0.03 | 72 | 1014.8 |
| 20260904175824 | 86 | 331 | 0.0 | 7.0 | 0.00 | 0.05 | 0.03 | 74 | 1014.8 |
| 20260904175318 | 86 | 360 | 1.0 | 7.0 | 0.00 | 0.05 | 0.03 | 73 | 1014.9 |
| 20260904174816 | 85 | 350 | 1.0 | 5.0 | 0.00 | 0.05 | 0.03 | 76 | 1014.9 |
| 20260904174306 | 85 | 360 | 1.0 | 4.0 | 0.00 | 0.05 | 0.03 | 74 | 1014.9 |
| 20260904173803 | 84 | 355 | 0.0 | 3.0 | 0.00 | 0.05 | 0.03 | 75 | 1015.0 |
| 20260904173317 | 84 | 111 | 0.0 | 3.0 | 0.01 | 0.05 | 0.03 | 74 | 1014.9 |
| 20260904172834 | 84 | 90 | 0.0 | 3.0 | 0.01 | 0.05 | 0.03 | 75 | 1014.9 |
| 20260904171814 | 84 | 108 | 0.0 | 2.0 | 0.01 | 0.05 | 0.03 | 75 | 1014.9 |
| 20260904171309 | 84 | 26 | 0.0 | 3.0 | 0.01 | 0.05 | 0.03 | 76 | 1014.9 |
| 20260904170818 | 83 | 40 | 0.0 | 3.0 | 0.01 | 0.05 | 0.03 | 77 | 1014.9 |
| 20260904170335 | 83 | 345 | 0.0 | 1.0 | 0.01 | 0.05 | 0.03 | 77 | 1014.9 |
| 20260904165811 | 83 | 90 | 0.0 | 3.0 | 0.01 | 0.05 | 0.03 | 77 | 1014.8 |
| 20260904165306 | 83 | 79 | 0.0 | 3.0 | 0.01 | 0.05 | 0.03 | 77 | 1015.0 |
| 20260904164803 | 83 | 72 | 0.0 | 1.0 | 0.01 | 0.05 | 0.03 | 78 | 1015.1 |
| 20260904164321 | 83 | 84 | 0.0 | 3.0 | 0.01 | 0.05 | 0.03 | 78 | 1015.1 |
| 20260904163816 | 83 | 19 | 0.0 | 3.0 | 0.01 | 0.05 | 0.03 | 78 | 1015.2 |
| 20260904163314 | 83 | 14 | 0.0 | 1.0 | 0.00 | 0.04 | 0.02 | 78 | 1015.3 |
| 20260904162812 | 83 | 32 | 0.0 | 1.0 | 0.00 | 0.04 | 0.02 | 78 | 1015.3 |
| 20260904162308 | 83 | 334 | 0.0 | 1.0 | 0.00 | 0.04 | 0.02 | 79 | 1015.3 |
| 20260904161806 | 83 | 355 | 0.0 | 2.0 | 0.00 | 0.05 | 0.02 | 79 | 1015.4 |
| 20260904161302 | 83 | 34 | 0.0 | 2.0 | 0.00 | 0.05 | 0.02 | 79 | 1015.4 |
| 20260904160817 | 83 | 355 | 0.0 | 1.0 | 0.00 | 0.05 | 0.02 | 80 | 1015.4 |
| 20260904160312 | 82 | 355 | 0.0 | 3.0 | 0.00 | 0.05 | 0.02 | 81 | 1015.4 |
| 20260904155828 | 82 | 340 | 0.0 | 3.0 | 0.00 | 0.05 | 0.02 | 82 | 1015.4 |
| 20260904155306 | 82 | 28 | 0.0 | 3.0 | 0.00 | 0.05 | 0.02 | 83 | 1015.5 |
| 20260904154800 | 82 | 355 | 0.0 | 3.0 | 0.00 | 0.05 | 0.02 | 84 | 1015.4 |
| 20260904154313 | 81 | 40 | 0.0 | 2.0 | 0.00 | 0.05 | 0.02 | 85 | 1015.4 |
| 20260904153803 | 81 | 33 | 0.0 | 3.0 | 0.00 | 0.05 | 0.02 | 85 | 1015.3 |
| 20260904153301 | 81 | 111 | 0.0 | 3.0 | 0.00 | 0.05 | 0.02 | 85 | 1015.2 |
| 20260904152816 | 81 | 44 | 0.0 | 2.0 | 0.00 | 0.05 | 0.02 | 85 | 1015.2 |
| 20260904152314 | 81 | 36 | 0.0 | 2.0 | 0.01 | 0.05 | 0.02 | 87 | 1015.2 |
| 20260904151811 | 81 | 18 | 0.0 | 2.0 | 0.01 | 0.05 | 0.02 | 88 | 1015.2 |
| 20260904151308 | 80 | 18 | 0.0 | 2.0 | 0.01 | 0.05 | 0.02 | 88 | 1015.2 |
| 20260904150802 | 80 | 22 | 0.0 | 1.0 | 0.01 | 0.05 | 0.02 | 89 | 1015.3 |
| 20260904150316 | 80 | 13 | 0.0 | 1.0 | 0.01 | 0.05 | 0.02 | 90 | 1015.3 |
| 20260904145813 | 80 | 28 | 0.0 | 2.0 | 0.01 | 0.05 | 0.02 | 90 | 1015.3 |
| 20260904145328 | 80 | 28 | 0.0 | 2.0 | 0.01 | 0.05 | 0.02 | 91 | 1015.3 |
| 20260904144821 | 80 | 205 | 0.0 | 0.0 | 0.01 | 0.05 | 0.02 | 91 | 1015.2 |
| 20260904144338 | 79 | 205 | 0.0 | 0.0 | 0.01 | 0.05 | 0.02 | 91 | 1015.2 |
| 20260904143812 | 79 | 205 | 0.0 | 0.0 | 0.01 | 0.05 | 0.02 | 91 | 1015.1 |
| 20260904143309 | 79 | 205 | 0.0 | 0.0 | 0.01 | 0.05 | 0.02 | 91 | 1015.1 |
| 20260904142805 | 79 | 205 | 0.0 | 0.0 | 0.01 | 0.05 | 0.02 | 91 | 1015.1 |
| 20260904142300 | 78 | 205 | 0.0 | 0.0 | 0.00 | 0.04 | 0.01 | 91 | 1015.1 |
| 20260904141816 | 78 | 205 | 0.0 | 0.0 | 0.00 | 0.04 | 0.01 | 90 | 1015.1 |
| 20260904141332 | 78 | 205 | 0.0 | 0.0 | 0.00 | 0.04 | 0.01 | 90 | 1015.0 |
| 20260904140827 | 78 | 205 | 0.0 | 0.0 | 0.00 | 0.04 | 0.01 | 90 | 1015.0 |
| 20260904140343 | 78 | 205 | 0.0 | 1.0 | 0.00 | 0.04 | 0.01 | 91 | 1015.1 |
| 20260904135837 | 78 | 254 | 0.0 | 0.0 | 0.00 | 0.04 | 0.01 | 92 | 1015.1 |
| 20260904134811 | 78 | 254 | 0.0 | 0.0 | 0.00 | 0.04 | 0.01 | 92 | 1014.8 |
| 20260904134307 | 77 | 254 | 0.0 | 0.0 | 0.00 | 0.04 | 0.01 | 92 | 1014.7 |
| 20260904133824 | 77 | 254 | 0.0 | 0.0 | 0.00 | 0.04 | 0.01 | 92 | 1014.5 |
| 20260904133320 | 76 | 254 | 0.0 | 0.0 | 0.00 | 0.04 | 0.01 | 91 | 1014.4 |
| 20260904132818 | 76 | 254 | 0.0 | 0.0 | 0.00 | 0.04 | 0.01 | 91 | 1014.3 |
| 20260904132330 | 76 | 254 | 0.0 | 0.0 | 0.00 | 0.04 | 0.01 | 91 | 1014.3 |
| 20260904131804 | 75 | 254 | 0.0 | 0.0 | 0.00 | 0.04 | 0.01 | 90 | 1014.4 |
| 20260904131301 | 75 | 254 | 0.0 | 0.0 | 0.00 | 0.04 | 0.01 | 90 | 1014.4 |
| 20260904130819 | 75 | 254 | 0.0 | 0.0 | 0.00 | 0.04 | 0.01 | 90 | 1014.5 |
| 20260904130316 | 75 | 254 | 0.0 | 0.0 | 0.00 | 0.04 | 0.01 | 90 | 1014.6 |
| 20260904125814 | 74 | 254 | 0.0 | 0.0 | 0.00 | 0.04 | 0.01 | 89 | 1014.5 |
| 20260904125310 | 74 | 254 | 0.0 | 0.0 | 0.01 | 0.04 | 0.01 | 89 | 1014.4 |
| 20260904124826 | 74 | 254 | 0.0 | 0.0 | 0.01 | 0.04 | 0.01 | 89 | 1014.4 |
| 20260904124301 | 74 | 254 | 0.0 | 0.0 | 0.01 | 0.04 | 0.01 | 89 | 1014.5 |
| 20260904123816 | 74 | 254 | 0.0 | 2.0 | 0.01 | 0.04 | 0.01 | 89 | 1014.4 |
| 20260904123331 | 75 | 227 | 0.0 | 2.0 | 0.01 | 0.04 | 0.01 | 90 | 1014.4 |
| 20260904122807 | 74 | 340 | 0.0 | 3.0 | 0.01 | 0.04 | 0.01 | 90 | 1014.4 |
| 20260904122325 | 74 | 118 | 1.0 | 7.0 | 0.01 | 0.04 | 0.01 | 89 | 1014.4 |
| 20260904121820 | 74 | 349 | 2.0 | 7.0 | 0.01 | 0.04 | 0.01 | 89 | 1014.4 |
| 20260904121316 | 73 | 321 | 2.0 | 7.0 | 0.01 | 0.04 | 0.01 | 89 | 1014.3 |
| 20260904120834 | 73 | 332 | 3.0 | 6.0 | 0.01 | 0.04 | 0.01 | 88 | 1014.3 |
| 20260904120308 | 73 | 308 | 2.0 | 5.0 | 0.01 | 0.04 | 0.01 | 88 | 1014.4 |
| 20260904115803 | 73 | 325 | 3.0 | 6.0 | 0.01 | 0.04 | 0.01 | 88 | 1014.4 |
| 20260904115321 | 74 | 320 | 4.0 | 6.0 | 0.00 | 0.03 | 0.00 | 87 | 1014.3 |
| 20260904114817 | 74 | 113 | 0.0 | 2.0 | 0.00 | 0.03 | 0.00 | 87 | 1014.5 |
| 20260904114313 | 74 | 113 | 0.0 | 2.0 | 0.00 | 0.03 | 0.00 | 86 | 1014.6 |
| 20260904113832 | 74 | 112 | 0.0 | 4.0 | 0.00 | 0.03 | 0.00 | 86 | 1014.5 |
| 20260904113306 | 74 | 167 | 1.0 | 4.0 | 0.00 | 0.03 | 0.00 | 85 | 1014.6 |
| 20260904112802 | 74 | 46 | 1.0 | 8.0 | 0.00 | 0.03 | 0.00 | 84 | 1014.4 |
| 20260904112315 | 75 | 222 | 2.0 | 13.0 | 0.00 | 0.03 | 0.00 | 83 | 1014.0 |
| 20260904111812 | 75 | 333 | 4.0 | 13.0 | 0.00 | 0.03 | 0.00 | 82 | 1013.6 |
| 20260904111309 | 77 | 221 | 5.0 | 12.0 | 0.00 | 0.03 | 0.00 | 79 | 1013.7 |
| 20260904110807 | 79 | 264 | 2.0 | 8.0 | 0.00 | 0.03 | 0.00 | 79 | 1013.8 |
| 20260904110304 | 81 | 318 | 3.0 | 8.0 | 0.00 | 0.03 | 0.00 | 77 | 1013.9 |
| 20260904105820 | 81 | 313 | 2.0 | 5.0 | 0.00 | 0.03 | 0.00 | 77 | 1013.6 |
| 20260904105308 | 81 | 72 | 0.0 | 4.0 | 0.00 | 0.03 | 0.00 | 76 | 1013.7 |
| 20260904104803 | 81 | 124 | 0.0 | 5.0 | 0.00 | 0.03 | 0.00 | 76 | 1013.5 |
| 20260904104320 | 82 | 260 | 2.0 | 6.0 | 0.00 | 0.03 | 0.00 | 77 | 1013.5 |
| 20260904103807 | 82 | 248 | 1.0 | 4.0 | 0.00 | 0.03 | 0.00 | 78 | 1013.4 |
| 20260904103304 | 82 | 229 | 1.0 | 4.0 | 0.00 | 0.03 | 0.00 | 79 | 1013.2 |
| 20260904102855 | 82 | 173 | 0.0 | 0.0 | 0.00 | 0.03 | 0.00 | 81 | 1013.1 |
| 20260904102307 | 82 | 173 | 0.0 | 0.0 | 0.00 | 0.03 | 0.00 | 81 | 1013.0 |
| 20260904101804 | 82 | 173 | 0.0 | 0.0 | 0.00 | 0.04 | 0.00 | 81 | 1013.0 |
| 20260904101314 | 82 | 173 | 0.0 | 2.0 | 0.00 | 0.04 | 0.00 | 81 | 1012.9 |
| 20260904100810 | 82 | 173 | 0.0 | 2.0 | 0.00 | 0.04 | 0.00 | 81 | 1013.0 |
| 20260904100328 | 82 | 173 | 0.0 | 0.0 | 0.00 | 0.04 | 0.00 | 80 | 1012.9 |
| 20260904095803 | 82 | 173 | 0.0 | 0.0 | 0.00 | 0.04 | 0.00 | 80 | 1012.9 |
| 20260904095319 | 82 | 173 | 0.0 | 0.0 | 0.00 | 0.04 | 0.00 | 80 | 1012.9 |
| 20260904094815 | 82 | 173 | 0.0 | 1.0 | 0.00 | 0.04 | 0.00 | 80 | 1012.8 |
| 20260904094310 | 82 | 173 | 0.0 | 2.0 | 0.00 | 0.04 | 0.00 | 80 | 1012.7 |
| 20260904093806 | 82 | 173 | 0.0 | 2.0 | 0.00 | 0.04 | 0.00 | 80 | 1012.7 |
| 20260904093325 | 82 | 173 | 0.0 | 2.0 | 0.00 | 0.04 | 0.00 | 80 | 1012.7 |
| 20260904092841 | 82 | 172 | 0.0 | 2.0 | 0.00 | 0.04 | 0.00 | 80 | 1012.8 |
| 20260904092315 | 82 | 172 | 1.0 | 2.0 | 0.00 | 0.04 | 0.00 | 80 | 1012.8 |
| 20260904091830 | 82 | 172 | 0.0 | 2.0 | 0.00 | 0.04 | 0.00 | 80 | 1012.8 |
| 20260904091305 | 82 | 172 | 1.0 | 2.0 | 0.00 | 0.04 | 0.00 | 80 | 1012.9 |
| 20260904090312 | 81 | 171 | 0.0 | 0.0 | 0.00 | 0.04 | 0.00 | 81 | 1012.9 |
| 20260904085807 | 81 | 171 | 0.0 | 0.0 | 0.00 | 0.04 | 0.00 | 81 | 1013.0 |
| 20260904085323 | 81 | 171 | 0.0 | 0.0 | 0.00 | 0.04 | 0.00 | 80 | 1013.0 |
| 20260904084813 | 82 | 171 | 0.0 | 0.0 | 0.00 | 0.04 | 0.00 | 80 | 1013.0 |
| 20260904084329 | 82 | 171 | 0.0 | 0.0 | 0.00 | 0.04 | 0.00 | 80 | 1013.1 |
| 20260904083824 | 81 | 171 | 0.0 | 0.0 | 0.00 | 0.04 | 0.00 | 80 | 1013.0 |
| 20260904083318 | 81 | 172 | 0.0 | 0.0 | 0.00 | 0.04 | 0.00 | 80 | 1013.0 |
| 20260904082834 | 81 | 171 | 0.0 | 0.0 | 0.00 | 0.04 | 0.00 | 80 | 1013.0 |
| 20260904082311 | 81 | 171 | 0.0 | 0.0 | 0.00 | 0.04 | 0.00 | 81 | 1013.1 |
| 20260904081807 | 81 | 172 | 0.0 | 0.0 | 0.00 | 0.04 | 0.00 | 81 | 1013.1 |
| 20260904081305 | 81 | 171 | 0.0 | 0.0 | 0.00 | 0.04 | 0.00 | 81 | 1013.1 |
| 20260904080821 | 81 | 172 | 0.0 | 0.0 | 0.00 | 0.04 | 0.00 | 81 | 1013.2 |
| 20260904080338 | 81 | 171 | 0.0 | 0.0 | 0.00 | 0.04 | 0.00 | 81 | 1013.2 |
| 20260904075813 | 81 | 171 | 0.0 | 0.0 | 0.00 | 0.04 | 0.00 | 81 | 1013.2 |
| 20260904075309 | 81 | 171 | 0.0 | 0.0 | 0.00 | 0.04 | 0.00 | 81 | 1013.2 |
| 20260904074804 | 81 | 171 | 0.0 | 0.0 | 0.00 | 0.04 | 0.00 | 80 | 1013.2 |
| 20260904074322 | 81 | 171 | 0.0 | 0.0 | 0.00 | 0.04 | 0.00 | 80 | 1013.2 |
| 20260904073814 | 81 | 171 | 0.0 | 0.0 | 0.00 | 0.04 | 0.00 | 80 | 1013.0 |
| 20260904073331 | 81 | 171 | 0.0 | 0.0 | 0.00 | 0.04 | 0.00 | 80 | 1013.1 |
| 20260904072805 | 81 | 171 | 0.0 | 0.0 | 0.00 | 0.04 | 0.00 | 80 | 1013.1 |
| 20260904072320 | 81 | 171 | 0.0 | 0.0 | 0.00 | 0.04 | 0.00 | 80 | 1013.1 |
| 20260904071835 | 81 | 171 | 0.0 | 0.0 | 0.00 | 0.04 | 0.04 | 80 | 1013.1 |
| 20260904071311 | 81 | 171 | 0.0 | 0.0 | 0.00 | 0.04 | 0.04 | 80 | 1013.1 |
| 20260904070806 | 81 | 171 | 0.0 | 0.0 | 0.00 | 0.04 | 0.04 | 80 | 1013.2 |
| 20260904070323 | 81 | 172 | 0.0 | 0.0 | 0.00 | 0.04 | 0.04 | 80 | 1013.2 |
| 20260904065818 | 81 | 171 | 0.0 | 0.0 | 0.00 | 0.04 | 0.04 | 81 | 1013.2 |
| 20260904065314 | 81 | 171 | 0.0 | 0.0 | 0.00 | 0.04 | 0.04 | 80 | 1013.3 |
| 20260904064825 | 81 | 171 | 0.0 | 0.0 | 0.00 | 0.04 | 0.04 | 80 | 1013.4 |
| 20260904064320 | 81 | 171 | 0.0 | 0.0 | 0.00 | 0.04 | 0.04 | 80 | 1013.4 |
| 20260904063817 | 81 | 171 | 0.0 | 0.0 | 0.00 | 0.04 | 0.04 | 80 | 1013.3 |
| 20260904063313 | 81 | 171 | 0.0 | 0.0 | 0.00 | 0.04 | 0.04 | 80 | 1013.3 |
| 20260904062832 | 81 | 171 | 0.0 | 0.0 | 0.00 | 0.04 | 0.04 | 80 | 1013.3 |
| 20260904062306 | 81 | 171 | 0.0 | 0.0 | 0.00 | 0.04 | 0.04 | 80 | 1013.4 |
| 20260904061803 | 81 | 171 | 0.0 | 0.0 | 0.00 | 0.04 | 0.04 | 80 | 1013.3 |
| 20260904061319 | 81 | 172 | 0.0 | 0.0 | 0.01 | 0.04 | 0.04 | 80 | 1013.4 |
| 20260904060817 | 81 | 171 | 0.0 | 0.0 | 0.01 | 0.04 | 0.04 | 80 | 1013.4 |
| 20260904060314 | 81 | 171 | 0.0 | 0.0 | 0.01 | 0.04 | 0.04 | 80 | 1013.4 |
| 20260904055810 | 81 | 171 | 0.0 | 0.0 | 0.01 | 0.04 | 0.04 | 79 | 1013.3 |
| 20260904055327 | 81 | 171 | 0.0 | 0.0 | 0.01 | 0.04 | 0.04 | 79 | 1013.4 |
| 20260904054823 | 81 | 171 | 0.0 | 0.0 | 0.01 | 0.04 | 0.04 | 79 | 1013.4 |
| 20260904054317 | 81 | 171 | 0.0 | 0.0 | 0.01 | 0.04 | 0.04 | 79 | 1013.4 |
| 20260904053815 | 81 | 171 | 0.0 | 0.0 | 0.01 | 0.04 | 0.04 | 79 | 1013.4 |
| 20260904053331 | 82 | 171 | 0.0 | 0.0 | 0.01 | 0.04 | 0.04 | 79 | 1013.3 |
| 20260904052807 | 82 | 171 | 0.0 | 0.0 | 0.01 | 0.04 | 0.04 | 79 | 1013.3 |
| 20260904052306 | 82 | 171 | 0.0 | 0.0 | 0.01 | 0.04 | 0.04 | 79 | 1013.2 |
| 20260904051819 | 82 | 171 | 0.0 | 0.0 | 0.01 | 0.04 | 0.04 | 79 | 1013.1 |
| 20260904051317 | 82 | 171 | 0.0 | 0.0 | 0.00 | 0.03 | 0.03 | 78 | 1013.1 |